x

First Landing (44064) Weather Station

3:30am - Sat 23rd Sep 2017 All times are EDT. -4 hours from GMT.

  • Wind
    9mph, 11mph gusts
  • Air Temp 74°f
  • Sea Pressure 1015.6mb
  • First Landing
  • First Landing

More Historic Weather Station data

Upgrade to MSW Pro to gain access to the past 30 days of data for over 8000 Wavebouys and Weather Stations around the globe.

Join

Comparision Forecast

View Surf forecast
   
Sat 09/23 3:30am  -   -  9 11 mph 1015.6mb - 74f
2:10am 2ft  -  7 7 mph 1015.8mb - 75f
2:00am 2ft 6s 7 7 mph 1015.8mb 75f 75f
1:50am 2ft  -  4 7 mph 1015.7mb - 75f
1:40am  -   -  4 7 mph 1015.7mb - 75f
1:30am  -   -  7 7 mph 1015.8mb - 75f
1:20am  -   -  4 7 mph 1015.7mb - 75f
1:10am 2ft  -  4 7 mph 1015.7mb - 75f
1:00am 2ft 7s 4 7 mph 1015.7mb 75f 75f
12:50am 2ft  -  2 7 mph 1015.7mb - 75f
12:40am  -   -  4 7 mph 1015.9mb - 75f
12:30am  -   -  4 7 mph 1015.8mb - 75f
Fri 09/22 11:20pm  -   -   -  4 mph 1015.9mb - 76f
11:10pm 2ft  -   -  2 mph 1016mb - 76f
11:00pm 2ft 5s 2 4 mph 1015.9mb 75f 76f
10:50pm 2ft  -   -  4 mph 1015.9mb - 76f
10:40pm  -   -   -  2 mph 1015.9mb - 76f
10:30pm  -   -   -  0 mph 1015.9mb - 76f
10:20pm  -   -   -  2 mph 1015.8mb - 76f
10:10pm 2.5ft  -   -  2 mph 1015.8mb - 75f
10:00pm 2.5ft 5s  -  4 mph 1015.8mb 76f 75f
9:50pm  -   -  2 4 mph 1015.9mb - 75f
9:40pm  -   -  2 4 mph 1015.8mb - 75f
9:30pm  -   -   -  4 mph 1015.7mb - 75f
9:20pm  -   -  2 4 mph 1015.7mb - 76f
9:10pm 2.5ft  -   -  2 mph 1015.7mb - 75f
9:00pm 2.5ft 5s  -  2 mph 1015.7mb 76f 76f
8:50pm 2.5ft  -   -  2 mph 1015.7mb - 75f
8:40pm  -   -   -  2 mph 1015.7mb - 75f
8:30pm  -   -  2 4 mph 1015.6mb - 75f
8:20pm  -   -  2 7 mph 1015.5mb - 75f
8:10pm 2.5ft  -  2 7 mph 1015.4mb - 75f
8:00pm 2.5ft 5s 2 4 mph 1015.3mb 76f 75f
7:50pm 2.5ft  -   -  2 mph 1015.2mb - 75f
7:40pm  -   -   -  2 mph 1015.2mb - 75f
7:20pm  -   -   -  2 mph 1015.1mb - 75f
7:10pm 2ft  -   -  0 mph 1014.9mb - 75f
7:00pm 2ft 5s  -  0 mph 1014.9mb 76f 76f
6:50pm 2ft  -   -  0 mph 1014.8mb - 76f
6:40pm  -   -   -  0 mph 1015mb - 77f
6:30pm  -   -   -  0 mph 1015.1mb - 77f
6:20pm  -   -   -  0 mph 1015.1mb - 77f
6:10pm 2ft  -   -  0 mph 1015mb - 77f
6:00pm 2ft 5s  -  0 mph 1015.1mb 76f 77f
5:50pm 2ft  -   -  0 mph 1015.2mb - 78f
5:40pm  -   -   -  0 mph 1015.2mb - 78f
5:30pm  -   -   -  0 mph 1015.2mb - 77f
5:20pm  -   -   -  4 mph 1015.2mb - 77f
5:10pm 2ft  -   -  4 mph 1015.3mb - 77f
5:00pm 2ft 5s 4 7 mph 1015.3mb 76f 77f
4:50pm 2ft  -  4 7 mph 1015.3mb - 76f
4:40pm  -   -  4 7 mph 1015.4mb - 76f
4:30pm  -   -  4 7 mph 1015.3mb - 76f
4:20pm  -   -  4 7 mph 1015.4mb - 76f
4:10pm 2ft  -  4 7 mph 1015.5mb - 76f
4:00pm 2ft 4s 4 7 mph 1015.6mb 76f 76f
3:50pm 2ft  -  7 7 mph 1015.6mb - 75f
3:40pm  -   -  7 9 mph 1015.7mb - 75f
3:30pm  -   -  9 9 mph 1015.7mb - 75f
3:20pm  -   -  9 11 mph 1015.8mb - 75f
3:10pm 2ft  -  9 11 mph 1015.9mb - 75f
3:00pm 2ft 4s 9 11 mph 1015.9mb 76f 75f
2:50pm 2ft  -  9 11 mph 1015.8mb - 75f
2:40pm  -   -  9 11 mph 1015.9mb - 75f
2:30pm  -   -  11 13 mph 1016.2mb - 75f
2:20pm  -   -  13 16 mph 1016.3mb - 75f
2:10pm 2.5ft  -  13 16 mph 1016.3mb - 75f
2:00pm 2.5ft 4s 13 16 mph 1016.4mb 76f 75f
1:50pm 2.5ft  -  13 13 mph 1016.4mb - 75f
1:40pm  -   -  13 16 mph 1016.4mb - 75f
1:30pm  -   -  16 18 mph 1016.4mb - 75f
1:20pm  -   -  13 18 mph 1016.4mb - 75f
1:10pm 2.5ft  -  13 16 mph 1016.6mb - 75f
1:00pm 2.5ft 5s 13 16 mph 1016.6mb 76f 75f
12:50pm 2.5ft  -  13 16 mph 1016.6mb - 75f
12:40pm  -   -  13 16 mph 1016.8mb - 75f
12:30pm  -   -  13 16 mph 1016.9mb - 76f
12:20pm  -   -  11 16 mph 1016.9mb - 76f
12:10pm 2.5ft  -  11 16 mph 1016.9mb - 76f
12:00pm 2.5ft 6s 9 11 mph 1016.8mb 76f 76f
11:50am 2.5ft  -  9 13 mph 1016.8mb - 76f
11:40am  -   -  9 13 mph 1016.9mb - 76f
11:30am  -   -  9 11 mph 1017mb - 76f
11:20am  -   -  9 11 mph 1017.2mb - 76f
11:10am 2.5ft  -  11 13 mph 1017.4mb - 76f
11:00am 2.5ft 5s 11 13 mph 1017.4mb 75f 76f
10:50am 2.5ft  -  9 11 mph 1017.3mb - 76f
10:40am  -   -  9 13 mph 1017.2mb - 76f
10:30am  -   -  11 13 mph 1017.3mb - 76f
10:20am  -   -  11 13 mph 1017.4mb - 76f
10:10am 3ft  -  11 13 mph 1017.5mb - 76f
10:00am 3ft 5s 11 13 mph 1017.5mb 75f 75f
9:50am 3ft  -  11 13 mph 1017.5mb - 75f
9:40am  -   -  13 16 mph 1017.5mb - 75f
9:30am  -   -  13 16 mph 1017.4mb - 74f
9:20am  -   -  13 18 mph 1017.4mb - 74f
9:10am 2.5ft  -  13 16 mph 1017.4mb - 74f
9:00am 2.5ft 5s 13 16 mph 1017.5mb 75f 74f
8:50am 2.5ft  -  13 18 mph 1017.5mb - 74f
8:40am  -   -  13 18 mph 1017.4mb - 73f
8:30am  -   -  13 16 mph 1017.4mb - 73f
8:20am  -   -  13 16 mph 1017.4mb - 73f
8:10am 2.5ft  -  13 16 mph 1017.4mb - 73f
8:00am 2.5ft 4s 16 18 mph 1017.2mb 75f 73f
7:50am  -   -  13 16 mph 1017.2mb - 73f
7:40am  -   -  13 16 mph 1017.2mb - 73f
7:30am  -   -  13 18 mph 1017.1mb - 73f
7:20am  -   -  16 18 mph 1016.9mb - 73f
7:10am 2.5ft  -  13 18 mph 1016.8mb - 73f
7:00am 2.5ft 5s 13 16 mph 1016.8mb 75f 73f
6:50am 2.5ft  -  13 18 mph 1016.8mb - 73f
6:40am  -   -  13 18 mph 1016.8mb - 73f
6:30am  -   -  11 16 mph 1016.7mb - 73f
6:20am  -   -  11 13 mph 1016.6mb - 73f
6:10am 2ft  -  11 16 mph 1016.5mb - 73f
6:00am 2ft 4s 11 13 mph 1016.4mb 75f 73f
5:50am  -   -  11 13 mph 1016.4mb - 73f
5:40am  -   -  11 13 mph 1016.3mb - 73f
5:30am  -   -  11 13 mph 1016.3mb - 72f
5:20am  -   -  11 13 mph 1016.3mb - 72f
5:10am 1.3ft  -  11 13 mph 1016.3mb - 72f
5:00am 1.3ft 4s 9 11 mph 1016.3mb 75f 72f
4:50am 1.3ft  -  11 13 mph 1016.3mb - 72f
4:40am  -   -  11 11 mph 1016.3mb - 72f
4:30am  -   -  11 11 mph 1016.2mb - 72f
4:20am  -   -  11 13 mph 1016.1mb - 72f
4:10am 1.6ft  -  11 13 mph 1016mb - 72f
4:00am 1.6ft 4s 11 13 mph 1016mb 75f 73f
3:50am 1.6ft  -  11 13 mph 1016.1mb - 73f
3:40am  -   -  11 13 mph 1016.1mb - 73f
3:30am  -   -  11 13 mph 1016.1mb - 72f
3:10am  -   -  11 13 mph 1016.2mb - 72f
2:00am 1.3ft 6s 11 13 mph 1017mb 75f 73f
1:50am 1.3ft  -  9 11 mph 1017.2mb - 73f
1:40am  -   -  9 11 mph 1017.3mb - 73f
1:30am  -   -  9 11 mph 1017.3mb - 73f
1:20am  -   -  9 11 mph 1017.3mb - 73f
1:10am 1.6ft  -  9 11 mph 1017.3mb - 73f
1:00am 1.6ft 5s 9 9 mph 1017.4mb 75f 73f
12:50am  -   -  9 9 mph 1017.3mb - 73f
12:40am  -   -  9 9 mph 1017.4mb - 73f
12:30am  -   -  7 9 mph 1017.4mb - 74f
12:20am  -   -  7 9 mph 1017.5mb - 74f
12:10am 1.6ft  -  9 11 mph 1017.5mb - 74f
12:00am 1.6ft 4s 9 11 mph 1017.5mb 75f 74f
Thu 09/21 11:50pm 1.6ft  -  9 11 mph 1017.5mb - 74f
11:40pm  -   -  9 11 mph 1017.4mb - 74f
11:30pm  -   -  9 11 mph 1017.4mb - 74f
10:20pm  -   -  11 13 mph 1017mb - 74f
10:10pm 2ft  -  11 13 mph 1016.9mb - 74f
10:00pm 2ft 4s 11 13 mph 1016.8mb 76f 74f
9:50pm 2ft  -  11 13 mph 1016.7mb - 74f
9:40pm  -   -  11 13 mph 1016.6mb - 74f
9:30pm  -   -  11 13 mph 1016.5mb - 74f
9:20pm  -   -  11 13 mph 1016.6mb - 74f
9:10pm 2.5ft  -  11 13 mph 1016.5mb - 74f
9:00pm 2.5ft 4s 11 13 mph 1016.4mb 76f 75f
8:50pm 2.5ft  -  11 13 mph 1016.3mb - 75f
8:40pm  -   -  11 13 mph 1016.3mb - 75f
8:30pm  -   -  11 13 mph 1016.2mb - 75f
8:20pm  -   -  11 11 mph 1016.2mb - 75f
8:10pm 2ft  -  11 11 mph 1016.3mb - 75f
8:00pm 2ft 5s 11 13 mph - 76f 76f
7:50pm 2ft  -  9 13 mph 1016mb - 76f
7:40pm  -   -  7 9 mph 1016mb - 76f
7:30pm  -   -  7 7 mph 1015.9mb - 76f
7:20pm  -   -  4 7 mph 1015.9mb - 76f
7:10pm 2ft  -  4 7 mph 1015.9mb - 76f
7:00pm 2ft 6s 2 7 mph 1015.8mb 76f 76f
6:50pm 2ft  -  4 7 mph 1015.6mb - 77f
6:40pm  -   -  2 7 mph 1015.6mb - 77f
6:30pm  -   -   -  4 mph 1015.6mb - 77f
6:20pm  -   -  2 4 mph 1015.6mb - 77f
6:10pm 1.6ft  -   -  2 mph 1015.6mb - 78f
6:00pm 1.6ft 6s  -  2 mph 1015.6mb 76f 77f
5:50pm 1.6ft  -   -  2 mph 1015.6mb - 77f
5:40pm  -   -   -  2 mph 1015.5mb - 78f
5:30pm  -   -   -  0 mph 1015.5mb - 78f
5:20pm  -   -   -  0 mph 1015.4mb - 78f
5:10pm  -   -   -  0 mph 1015.4mb - 78f
4:50pm  -   -   -  0 mph 1015.5mb - 78f
4:40pm  -   -   -  0 mph 1015.6mb - 78f
4:30pm  -   -   -  2 mph 1015.6mb - 78f
4:20pm  -   -   -  0 mph 1015.6mb - 78f
4:10pm 1ft  -   -  0 mph 1015.6mb - 78f
4:00pm 1ft 5s  -  0 mph 1015.6mb 76f 78f
3:50pm 1ft  -   -  0 mph 1015.7mb - 78f
3:40pm  -   -   -  2 mph 1015.8mb - 77f
3:30pm  -   -   -  2 mph 1015.8mb - 77f
3:20pm  -   -   -  4 mph 1015.8mb - 77f
3:10pm 1.3ft  -   -  0 mph 1016mb - 77f
3:00pm 1.3ft 4s  -  0 mph 1016.1mb 77f 77f
2:50pm 1.3ft  -   -  2 mph 1016.1mb - 77f
2:40pm  -   -   -  4 mph 1016.1mb - 77f
2:30pm  -   -   -  4 mph 1016.2mb - 77f
2:20pm  -   -   -  4 mph 1016.2mb - 77f
2:10pm 1.3ft  -   -  4 mph 1016.3mb - 76f
2:00pm 1.3ft 4s  -  2 mph 1016.3mb 77f 76f
1:50pm 1.3ft  -   -  0 mph 1016.3mb - 76f
1:40pm  -   -   -  2 mph 1016.4mb - 76f
1:30pm  -   -   -  4 mph 1016.4mb - 76f
1:20pm  -   -  2 4 mph 1016.4mb - 76f
1:10pm 1.3ft  -  2 4 mph 1016.5mb - 76f
1:00pm 1.3ft 4s  -  4 mph 1016.5mb 77f 76f
12:50pm 1.3ft  -   -  2 mph 1016.5mb - 76f
12:40pm  -   -  2 4 mph 1016.5mb - 76f
12:30pm  -   -   -  4 mph 1016.5mb - 76f
12:20pm  -   -  2 4 mph 1016.6mb - 76f
12:10pm 1.6ft  -  4 7 mph 1016.6mb - 76f
12:00pm 1.6ft 5s 4 7 mph 1016.6mb 76f 76f
11:50am  -   -  7 9 mph 1016.6mb - 75f
11:40am  -   -  7 7 mph 1016.6mb - 75f
11:30am  -   -  7 7 mph 1016.7mb - 75f
11:20am  -   -  4 7 mph 1016.7mb - 75f
11:10am 1.6ft  -  7 9 mph 1016.7mb - 75f
11:00am 1.6ft 4s 7 9 mph 1016.8mb 76f 75f
10:50am  -   -   -  mph 1016.8mb - 75f
10:40am  -   -   -  mph 1016.8mb - 75f
10:30am  -   -   -  mph 1016.8mb - 75f
10:20am  -   -   -  mph 1016.8mb - 75f
10:10am 1.6ft  -   -  mph 1016.8mb - 75f
10:00am 1.6ft 4s  -  mph 1016.8mb 75f 75f
9:50am  -   -   -  mph 1016.8mb - 75f
9:40am  -   -   -  mph 1016.9mb - 75f
9:30am  -   -   -  mph 1016.9mb - 75f
9:20am  -   -   -  mph 1016.8mb - 75f
9:10am 1.6ft  -   -  mph 1016.7mb - 75f
9:00am 1.6ft 4s  -  mph 1016.6mb 75f 75f
8:50am  -   -   -  mph 1016.4mb - 75f
8:40am  -   -   -  mph 1016.3mb - 76f
8:30am  -   -   -  mph 1016.3mb - 75f
8:20am  -   -   -  mph 1016.2mb - 75f
8:10am 1.6ft  -   -  mph 1016.2mb - 75f
8:00am 1.6ft 5s  -  mph 1016.2mb 75f 75f
7:50am 1.6ft  -   -  mph 1016.1mb - 75f
7:40am  -   -   -  mph 1016mb - 75f
7:30am  -   -   -  mph 1016mb - 75f
7:20am  -   -   -  mph 1015.9mb - 74f
7:10am 1.6ft  -   -  mph 1015.8mb - 74f
7:00am 1.6ft 6s  -  mph 1015.7mb 75f 74f
6:50am 1.6ft  -   -  mph 1015.7mb - 75f
6:40am  -   -   -  mph 1015.6mb - 75f
6:30am  -   -   -  mph 1015.5mb - 75f
6:20am  -   -   -  mph 1015.3mb - 75f
6:10am 1.6ft  -   -  mph 1015.2mb - 74f
6:00am 1.6ft 7s  -  mph 1015.1mb 75f 74f
5:50am 1.6ft  -   -  mph 1015.1mb - 74f
5:40am  -   -   -  mph 1015mb - 74f
4:30am  -   -   -  mph 1014.5mb - 75f
4:20am  -   -   -  mph 1014.6mb - 75f
4:10am 1.3ft  -   -  mph 1014.6mb - 75f
4:00am 1.3ft 6s  -  mph 1014.6mb 75f 75f
3:50am 1.3ft  -   -  mph 1014.6mb - 75f
3:40am  -   -   -  mph 1014.6mb - 75f
3:30am  -   -   -  mph 1014.6mb - 75f
3:20am  -   -   -  mph 1014.7mb - 75f
3:10am 1.3ft  -   -  mph 1014.8mb - 76f
3:00am 1.3ft 6s  -  mph 1014.8mb 75f 75f
2:50am 1.3ft  -   -  mph 1014.8mb - 75f
2:40am  -   -   -  mph 1014.8mb - 75f
2:30am  -   -   -  mph 1014.8mb - 75f
2:20am  -   -   -  mph 1014.9mb - 75f
2:10am 1.3ft  -   -  mph 1015mb - 75f
2:00am 1.3ft 6s  -  mph 1015mb 75f 75f
1:50am 1.3ft  -   -  mph 1015.1mb - 75f
1:40am  -   -   -  mph 1015.1mb - 76f
1:30am  -   -   -  mph 1015.1mb - 76f
1:20am  -   -   -  mph 1015mb - 76f
1:10am 1.6ft  -   -  mph 1014.9mb - 75f
1:00am 1.6ft 6s  -  mph 1014.9mb 75f 75f
12:50am  -   -   -  mph 1014.9mb - 75f
12:40am  -   -   -  mph 1014.9mb - 75f
12:30am  -   -   -  mph 1015mb - 75f
12:20am  -   -   -  mph 1014.9mb - 75f
12:10am 2ft  -   -  mph 1014.9mb - 75f
12:00am 2ft 6s  -  mph 1015mb 75f 75f
Wed 09/20 11:50pm 2ft  -   -  mph 1014.9mb - 75f
11:40pm  -   -   -  mph 1014.8mb - 75f
11:30pm  -   -   -  mph 1014.9mb - 75f
11:20pm  -   -   -  mph 1014.9mb - 75f
11:10pm 2ft  -   -  mph 1014.9mb - 75f
11:00pm 2ft 6s  -  mph 1014.9mb 75f 76f
10:50pm 2ft  -   -  mph 1014.9mb - 76f
10:40pm  -   -   -  mph 1014.8mb - 76f
10:30pm  -   -   -  mph 1014.8mb - 76f
10:20pm  -   -   -  mph 1014.7mb - 76f
10:10pm 2.5ft  -   -  mph 1014.6mb - 76f
10:00pm 2.5ft 6s  -  mph 1014.4mb 75f 76f
9:50pm  -   -   -  mph 1014.3mb - 76f
9:40pm  -   -   -  mph 1014.4mb - 76f
9:30pm  -   -   -  mph 1014.3mb - 77f
9:20pm  -   -   -  mph 1014.2mb - 77f
9:10pm 3ft  -   -  mph 1014.2mb - 77f
9:00pm 3ft 6s  -  mph 1014.2mb 75f 77f
8:50pm 3ft  -   -  mph 1014.2mb - 77f
8:40pm  -   -   -  mph 1014.1mb - 77f
8:30pm  -   -   -  mph 1014mb - 77f
8:20pm  -   -   -  mph 1013.9mb - 77f
8:10pm 2.5ft  -   -  mph 1013.8mb - 78f
8:00pm 2.5ft 5s  -  mph 1013.7mb 75f 78f
7:50pm  -   -   -  mph 1013.5mb - 78f
7:40pm  -   -   -  mph 1013.4mb - 78f
7:30pm  -   -   -  mph 1013.3mb - 78f
7:20pm  -   -   -  mph 1013.2mb - 78f
7:10pm 2.5ft  -   -  mph 1013.1mb - 78f
7:00pm 2.5ft 5s  -  mph 1013mb 76f 78f
6:50pm 2.5ft  -   -  mph 1013mb - 79f
6:40pm  -   -   -  mph 1012.8mb - 79f
6:30pm  -   -   -  mph 1012.8mb - 80f
6:20pm  -   -   -  mph 1012.7mb - 80f
6:10pm 2.5ft  -   -  mph 1012.7mb - 80f
6:00pm 2.5ft 5s  -  mph 1012.6mb 76f 80f
5:50pm 2.5ft  -   -  mph 1012.5mb - 81f
5:40pm  -   -   -  mph 1012.6mb - 81f
5:30pm  -   -   -  mph 1012.6mb - 80f
5:20pm  -   -   -  mph 1012.7mb - 80f
5:10pm 2ft  -   -  mph 1012.7mb - 80f
5:00pm 2ft 5s  -  mph 1012.7mb 76f 80f
4:50pm 2ft  -   -  mph 1012.7mb - 80f
4:40pm  -   -   -  mph 1012.6mb - 80f
4:30pm  -   -   -  mph 1012.6mb - 80f
4:20pm  -   -   -  mph 1012.6mb - 80f
4:10pm 1.6ft  -   -  mph 1012.6mb - 80f
4:00pm 1.6ft 4s  -  mph 1012.6mb 76f 79f
3:50pm  -   -   -  mph 1012.7mb - 79f
3:40pm  -   -   -  mph 1012.8mb - 79f
3:30pm  -   -   -  mph 1012.9mb - 78f
3:20pm  -   -   -  mph 1013.1mb - 78f
3:10pm 2ft  -   -  mph 1013.1mb - 78f
3:00pm 2ft 4s  -  mph 1013.2mb 76f 78f
2:50pm 2ft  -   -  mph 1013.2mb - 78f
2:40pm  -   -   -  mph 1013.3mb - 78f
2:30pm  -   -   -  mph 1013.3mb - 78f
2:20pm  -   -   -  mph 1013.3mb - 78f
2:10pm 1.6ft  -   -  mph 1013.4mb - 78f
2:00pm 1.6ft 4s  -  mph 1013.5mb 76f 78f
1:50pm 1.6ft  -   -  mph 1013.7mb - 78f
1:40pm  -   -   -  mph 1013.7mb - 78f
1:30pm  -   -   -  mph 1013.7mb - 77f
1:20pm  -   -   -  mph 1013.9mb - 77f
1:10pm 2ft  -   -  mph 1013.9mb - 77f
1:00pm 2ft 4s  -  mph 1014.1mb 75f 77f
12:50pm  -   -   -  mph 1014.1mb - 77f
12:40pm  -   -   -  mph 1014.1mb - 76f
12:30pm  -   -   -  mph 1014.2mb - 76f
12:20pm  -   -   -  mph 1014.2mb - 76f
12:10pm 2.5ft  -   -  mph 1014.1mb - 76f
12:00pm 2.5ft 4s  -  mph 1014.2mb 75f 76f
11:50am 2.5ft  -   -  mph 1014.2mb - 76f
11:40am  -   -   -  mph 1014.3mb - 75f
11:30am  -   -   -  mph 1014.3mb - 75f
11:20am  -   -   -  mph 1014.4mb - 75f
11:10am 2.5ft  -   -  mph 1014.5mb - 75f
11:00am 2.5ft 5s  -  mph 1014.2mb 74f 74f
10:50am 2.5ft  -   -  mph 1014.2mb - 74f
10:40am  -   -   -  mph 1014.1mb - 74f
10:30am  -   -   -  mph 1014.3mb - 74f
10:20am  -   -   -  mph 1014.3mb - 74f
10:10am 3ft  -   -  mph 1014.3mb - 74f
10:00am 3ft 5s  -  mph 1014.4mb 74f 74f
9:50am  -   -   -  mph 1014.5mb - 74f
9:40am  -   -   -  mph 1014.3mb - 74f
9:30am  -   -   -  mph 1014mb - 74f
9:20am  -   -   -  mph 1014mb - 74f
9:10am 3ft  -   -  mph 1014mb - 74f
9:00am 3ft 5s  -  mph 1013.9mb 74f 74f
8:50am 3ft  -   -  mph 1013.8mb - 74f
8:40am  -   -   -  mph 1013.7mb - 73f
8:30am  -   -   -  mph 1013.7mb - 73f
8:20am  -   -   -  mph 1013.5mb - 73f
8:10am 3.5ft  -   -  mph 1013.3mb - 73f
8:00am 3.5ft 5s  -  mph 1013.2mb 74f 73f
7:50am 3.5ft  -   -  mph 1013.1mb - 73f
7:40am  -   -   -  mph 1012.9mb - 73f
7:30am  -   -   -  mph 1012.8mb - 73f
7:20am  -   -   -  mph 1012.7mb - 73f
7:10am 3.5ft  -   -  mph 1012.5mb - 73f
7:00am 3.5ft 5s  -  mph 1012.4mb 74f 73f
6:50am 3.5ft  -   -  mph 1012.5mb - 73f
6:40am  -   -   -  mph 1012.3mb - 73f
6:30am  -   -   -  mph 1012.2mb - 73f
6:20am  -   -   -  mph 1012.1mb - 73f
6:10am  -   -   -  mph 1011.9mb - 73f
5:00am 3ft 4s  -  mph 1011.5mb 74f 73f
4:50am 3ft  -   -  mph 1011.4mb - 74f
4:40am  -   -   -  mph 1011.4mb - 74f
4:20am  -   -   -  mph 1011.3mb - 74f
3:10am 3.5ft  -   -  mph 1011.2mb - 73f
3:00am 3.5ft 5s  -  mph 1011.3mb 74f 73f
2:50am 3.5ft  -   -  mph 1011.3mb - 74f
2:40am  -   -   -  mph 1011.3mb - 74f
2:30am  -   -   -  mph 1011.3mb - 74f
2:20am  -   -   -  mph 1011.4mb - 74f
2:10am 3.5ft  -   -  mph 1011.4mb - 74f
2:00am 3.5ft 4s  -  mph 1011.5mb 74f 75f
1:50am 3.5ft  -   -  mph 1011.5mb - 75f
1:40am  -   -   -  mph 1011.6mb - 75f
1:30am  -   -   -  mph 1011.5mb - 75f
1:20am  -   -   -  mph 1011.5mb - 74f
1:10am 4ft  -   -  mph 1011.5mb - 74f
1:00am 4ft 5s  -  mph 1011.4mb 74f 74f
12:50am 4ft  -   -  mph 1011.3mb - 74f
12:40am  -   -   -  mph 1011.3mb - 74f
12:30am  -   -   -  mph 1011.4mb - 74f
12:20am  -   -   -  mph 1011.3mb - 74f
12:10am 3.5ft  -   -  mph 1011.2mb - 75f
12:00am 3.5ft 5s  -  mph 1011.3mb 74f 75f
Tue 09/19 11:50pm  -   -   -  mph 1011.3mb - 75f
11:40pm  -   -   -  mph 1011.4mb - 75f
11:30pm  -   -   -  mph 1011.5mb - 75f
11:20pm  -   -   -  mph 1011.6mb - 75f
11:10pm 4.5ft  -   -  mph 1011.6mb - 75f
11:00pm 4.5ft 6s  -  mph 1011.5mb 74f 75f
10:50pm 4.5ft  -   -  mph 1011.4mb - 74f
10:40pm  -   -   -  mph 1011.2mb - 74f
10:30pm  -   -   -  mph 1011.1mb - 75f
10:20pm  -   -   -  mph 1011mb - 74f
10:10pm 4.5ft  -   -  mph 1011.1mb - 74f
10:00pm 4.5ft 5s  -  mph 1011.1mb 74f 74f
9:50pm 4.5ft  -   -  mph 1011mb - 74f
9:40pm  -   -   -  mph 1010.9mb - 74f
9:30pm  -   -   -  mph 1010.8mb - 74f
9:20pm  -   -   -  mph 1010.9mb - 74f
9:10pm 5ft  -   -  mph 1011mb - 74f
9:00pm 5ft 5s  -  mph 1011mb 74f 74f
8:50pm 5ft  -   -  mph 1010.9mb - 74f
8:40pm  -   -   -  mph 1011mb - 74f
8:30pm  -   -   -  mph 1011mb - 74f
8:20pm  -   -   -  mph 1010.9mb - 74f
8:10pm 5ft  -   -  mph 1010.9mb - 74f
8:00pm 5ft 5s  -  mph 1010.9mb 75f 74f
7:50pm 5ft  -   -  mph 1010.7mb - 74f
7:40pm  -   -   -  mph 1010.5mb - 74f
7:30pm  -   -   -  mph 1010.5mb - 74f
7:20pm  -   -   -  mph 1010.5mb - 74f
7:10pm 5ft  -   -  mph 1010.6mb - 74f
7:00pm 5ft 5s  -  mph 1010.5mb 75f 74f
6:50pm 5ft  -   -  mph 1010.5mb - 74f
6:40pm  -   -   -  mph 1010.5mb - 74f
6:30pm  -   -   -  mph 1010.6mb - 74f
6:20pm  -   -   -  mph 1010.6mb - 74f
6:10pm 5ft  -   -  mph 1010.5mb - 74f
6:00pm 5.5ft 5s  -  mph 1010.6mb 75f 75f
5:50pm 5ft  -   -  mph 1010.6mb - 74f
5:40pm  -   -   -  mph 1010.6mb - 74f
5:30pm  -   -   -  mph 1010.5mb - 74f
5:20pm  -   -   -  mph 1010.4mb - 74f
5:10pm 5ft  -   -  mph 1010.4mb - 74f
5:00pm 5ft 5s  -  mph 1010.5mb 75f 74f
4:50pm 5ft  -   -  mph 1010.6mb - 73f
4:40pm  -   -   -  mph 1010.7mb - 73f
4:30pm  -   -   -  mph 1010.7mb - 74f
4:20pm  -   -   -  mph 1010.6mb - 74f
4:10pm 4.5ft  -   -  mph 1010.6mb - 73f
4:00pm 4.5ft 4s  -  mph 1010.5mb 74f 73f
3:50pm 4.5ft  -   -  mph 1010.5mb - 74f
3:40pm  -   -   -  mph 1010.3mb - 74f
3:30pm  -   -   -  mph 1010.3mb - 74f
3:20pm  -   -   -  mph 1010.3mb - 74f
3:10pm 5ft  -   -  mph 1010.4mb - 74f
3:00pm 5ft 5s  -  mph 1010.5mb 75f 74f
2:50pm 5ft  -   -  mph 1010.5mb - 73f
2:40pm  -   -   -  mph 1010.4mb - 73f
2:30pm  -   -   -  mph 1010.6mb - 73f
2:20pm  -   -   -  mph 1010.7mb - 73f
2:10pm 5ft  -   -  mph 1010.8mb - 73f
2:00pm 5ft 5s  -  mph 1010.8mb 74f 73f
1:50pm 5ft  -   -  mph 1010.7mb - 74f
1:40pm  -   -   -  mph 1010.6mb - 74f
1:30pm  -   -   -  mph 1010.7mb - 74f
1:20pm  -   -   -  mph 1010.6mb - 74f
1:10pm 5ft  -   -  mph 1010.8mb - 74f
1:00pm 5ft 5s  -  mph 1010.8mb 74f 74f
12:50pm 5ft  -   -  mph 1011mb - 74f
12:40pm  -   -   -  mph 1010.9mb - 74f
12:30pm  -   -   -  mph 1010.9mb - 74f
12:20pm  -   -   -  mph 1011mb - 74f
12:10pm 5.5ft  -   -  mph 1010.8mb - 74f
12:00pm 5.5ft 5s  -  mph 1010.7mb 74f 74f
11:50am  -   -   -  mph 1010.7mb - 74f
11:40am  -   -   -  mph 1010.8mb - 73f
11:30am  -   -   -  mph 1011mb - 73f
11:20am  -   -   -  mph 1011mb - 74f
11:10am 6ft  -   -  mph 1011.1mb - 74f
11:00am 6ft 5s  -  mph 1011mb 74f 73f
10:50am 6ft  -   -  mph 1011mb - 73f
10:40am  -   -   -  mph 1011mb - 73f
10:30am  -   -   -  mph 1011.1mb - 73f
10:20am  -   -   -  mph 1011mb - 73f
10:10am 5.5ft  -   -  mph 1011mb - 73f
10:00am 5.5ft 5s  -  mph 1011mb 74f 73f
9:50am 5.5ft  -   -  mph 1011mb - 73f
9:40am  -   -   -  mph 1011mb - 73f
9:30am  -   -   -  mph 1010.9mb - 73f
9:20am  -   -   -  mph 1010.8mb - 74f
9:10am 5.5ft  -   -  mph 1010.7mb - 73f
9:00am 5.5ft 5s  -  mph 1010.7mb 74f 73f
8:50am 5.5ft  -   -  mph 1010.7mb - 73f